Regional Weather Roundup
Issued by NWS

Home | Current Version | Previous Version | Text Only | Print | Product List | Glossary Off
Versions: 1 2 3 4 5 6 7 8 9 10 11 12 13 14 15 16 17 18 19 20 21 22 23 24 25 26 27

000
ASUS45 KBOU 251907
RWRCO

WEATHER ROUNDUP FOR COLORADO
NATIONAL WEATHER SERVICE DENVER/BOULDER CO
100 PM MDT THU AUG 25 2016

NOTE: "FAIR" INDICATES FEW OR NO CLOUDS BELOW 12000 FEET WITH NO
SIGNIFICANT WEATHER AND/OR OBSTRUCTIONS TO VISIBILITY.

COZ001>005-013-030-031-252000-
...NORTHWEST COLORADO...

CITY           SKY/WX    TMP DP  RH WIND       PRES   REMARKS
CRAIG          FAIR      67  38  34 NW6       30.25F
HAYDEN         FAIR      66  36  32 NW10      30.25F
MEEKER         LGT RAIN  68  40  35 NE5       30.24F
MOUNT WERNER   NOT AVBL
STEAMBOAT SPGS FAIR      68  36  31 W14G23    30.26F
WALDEN         FAIR      66  28  24 SW16G23   30.32F
$$

COZ006>008-011-252000-
...WEST CENTRAL VALLEYS...

CITY           SKY/WX    TMP DP  RH WIND       PRES   REMARKS
GRAND JUNCTION FAIR      74  48  39 SW5       30.14F
MONTROSE       FAIR      75  41  29 N8        30.21F
EAGLE          PTSUNNY   68  37  32 S25G37    30.27R
RIFLE          FAIR      69  44  40 E8        30.22F
DELTA          FAIR      81  37  20 CALM      30.17F
NUCLA          FAIR      77  41  27 N5        30.25F
$$

COZ017>023-064>068-252000-
...SOUTHWEST COLORADO...

CITY           SKY/WX    TMP DP  RH WIND       PRES   REMARKS
DURANGO        FAIR      73  44  35 VRB5      30.28F
CORTEZ         FAIR      76  41  28 W3        30.22F
PAGOSA SPRINGS FAIR      70  39  32 S9        30.33F THUNDER
TELLURIDE      CLOUDY    52  38  59 NE3G16    30.44S
WOLF CREEK PAS   N/A     43  32  65 NE8       30.62F THUNDER
$$

COZ009-010-012-014-032>034-037-058>063-252000-
...CENTRAL COLORADO...

CITY           SKY/WX    TMP DP  RH WIND       PRES   REMARKS
ASPEN          TSTM      55  37  50 SW12G17   30.41R
BUENA VISTA    FAIR      68  39  34 SE12      30.30F
COPPER MTN     TSTM      41  30  65 W25G46    30.58R
BERTHOUD PASS  CLOUDY    39  28  65 CALM      30.58F
COTTONWOOD PAS PTSUNNY   64  43  45 E12       30.42F
GUNNISON       FAIR      66  41  39 N10       30.32F
KREMMLING      CLOUDY    63  32  31 NW15G26   30.28S
LEADVILLE      PTSUNNY   56  26  31 N12G18    30.41F
MONARCH PASS   FAIR      50  30  46 SW24G31   30.67F
SALIDA         FAIR      74  38  27 SE8G26    30.35F
SUNLIGHT       LGT RAIN  45  37  76 NE23G33   30.54F
WILKERSON PASS FAIR      54  32  43 SW6       30.56F
$$

COZ069>075-252000-
...SAN LUIS VALLEY/SANGRE DE CRISTO MOUNTAINS...

CITY           SKY/WX    TMP DP  RH WIND       PRES   REMARKS
ALAMOSA        FAIR      68  43  40 VRB5      30.32F
LA VETA PASS   CLOUDY    54  45  71 NE7       30.49F
SAGUACHE       FAIR      66  43  42 S5        30.34F
$$

COZ035-036-038>040-252000-
...NORTHERN COLORADO FRONT RANGE...

CITY           SKY/WX    TMP DP  RH WIND       PRES   REMARKS
DENVER INTL AP FAIR      68  47  46 E7        30.26F
DMNS CITY PARK   N/A     67  44  44 NE6G14    30.25F
AURORA         MOSUNNY   66  47  49 NE3       30.27F
FRONT RANGE AP MOSUNNY   70  46  43 S3        30.27F
ERIE MUNI ARPT FAIR      69  39  33 NE5       30.25F
BOULDER MUN AP FAIR      66  43  42 N6        30.26F
CENTENNIAL     FAIR      67  44  43 N8        30.27F
BROOMFIELD     MOSUNNY   68  43  40 N5        30.28F
FORT COLLINS   FAIR      72  39  30 N7        30.25F
LONGMONT       FAIR      72  42  33 N5        30.26F
$$

COZ041-046-047-076>085-087-088-252000-
...PIKES PEAK/PALMER DIVIDE AND SOUTHERN FOOTHILLS...

CITY           SKY/WX    TMP DP  RH WIND       PRES   REMARKS
COLO. SPRINGS  PTSUNNY   67  44  43 SE10      30.30F
A. F. ACADEMY  FAIR      67  46  47 S10       30.29F
SCHRIEVER AFB  NOT AVBL
ELLICOTT       FAIR     N/A N/A N/A S12G20    30.29F
FALCON         FAIR      67  42  40 SE8       30.34F
FORT CARSON    NOT AVBL
LIMON          FAIR      73  39  29 SE13G18   30.26F
MONUMENT HILL  PTSUNNY   64  43  45 S12       30.33F
TRINIDAD       FAIR      72  49  44 E8        30.25F
$$

COZ042>045-048>051-090-091-252000-
...NORTHEAST COLORADO...

CITY           SKY/WX    TMP DP  RH WIND       PRES   REMARKS
GREELEY ARPT   FAIR      72  37  28 SE13      30.25F
AKRON          FAIR      72  40  31 E10       30.25F
BURLINGTON     FAIR      73  43  33 E9G20     30.24F
WRAY           FAIR      77  41  27 E8G17     30.23F
STERLING       FAIR      73  45  35 SE6       30.23F
HOLYOKE        FAIR      77  45  31 E6G17     30.25S
FORT MORGAN    FAIR      74  39  28 E13G18    30.25F
$$

COZ086-089-092>099-252000-
...SOUTHEAST COLORADO...

CITY           SKY/WX    TMP DP  RH WIND       PRES   REMARKS
PUEBLO         FAIR      75  45  34 SE9       30.22F
LA JUNTA       FAIR      75  50  41 E8        30.21F
LAMAR          PTSUNNY   74  56  53 E10       30.19F
SPRINGFIELD      N/A     69  57  65 E6        30.22F
$$




USA.gov is the U.S. government's official web portal to all federal, state and local government web resources and services.